Regional Weather Roundup
Issued by NWS Cleveland, OH

Home | Current Version | Previous Version | Graphics & Text | Print | Product List | Glossary On
Versions: 1 2 3 4 5 6 7 8 9 10 11 12 13 14 15 16 17 18 19 20 21 22 23 24 25 26 27 28 29 30 31 32 33 34 35 36 37 38 39 40 41 42 43 44 45 46 47 48 49 50
000
ASUS41 KCLE 221200
RWRCLE
OHIO REGIONAL WEATHER ROUNDUP
NATIONAL WEATHER SERVICE WILMINGTON, OH
700 AM EST WED FEB 22 2017

NOTE: "FAIR" INDICATES FEW OR NO CLOUDS BELOW 12,000 FEET WITH NO
SIGNIFICANT WEATHER AND/OR OBSTRUCTIONS TO VISIBILITY.

OHZ001>008-015>018-024>027-034-035-043-044-221300-
   NORTHWEST OHIO

CITY           SKY/WX    TMP DP  RH WIND       PRES   REMARKS
DEFIANCE       CLOUDY    51  49  92 S6        29.89F
FINDLAY        CLOUDY    54  50  86 S7        29.90R FOG
TOLEDO EXPRESS CLOUDY    53  52  96 SW8       29.89S
TOLEDO EXEC    MOCLDY    52  51  97 SW7       29.90S FOG
LIMA           CLOUDY    54  53  97 S6        29.91S FOG
$$

OHZ009>014-019>023-028>033-038-089-221300-
   NORTHEAST OHIO

CITY           SKY/WX    TMP DP  RH WIND       PRES   REMARKS
CLE-HOPKINS    CLOUDY    57  49  74 S7        29.93S
CLE-LAKEFRONT  CLOUDY    54  48  80 SW7       29.90R
CUY CO. ARPT   CLOUDY    59  54  82 SW9       29.92
LORAIN-ELYRIA  CLOUDY    53  49  86 SW5       29.91S
ASHTABULA      CLOUDY    49  45  86 S3        29.92R
AKRON-CANTON   RAIN      53  50  89 SW7       29.93S FOG
WOOSTER        NOT AVBL
MANSFIELD      CLOUDY    54  53  97 S7        29.93R
YOUNGSTOWN     CLOUDY    54  47  77 S6        29.94S
$$

OHZ042-051>053-060>062-070>072-077>081-221300-
  SOUTHWEST OHIO

CITY           SKY/WX    TMP DP  RH WIND       PRES   REMARKS
CINC-COVINGTON CLOUDY    56  55  97 S7        29.92S
CINC-LUNKEN    CLOUDY    55  55 100 CALM      29.94R FOG
HAMILTON       CLOUDY    56  56 100 CALM      29.94R FOG
DAYTON         NOT AVBL
WRIGHT-PAT AFB NOT AVBL
DAYTON GENERAL CLOUDY    55  54  96 S8        29.92S FOG
WILMINGTON     LGT RAIN  54  54 100 S5        29.94R FOG
$$

OHZ036-037-039>041-045>050-054>059-063>069-073>076-082>088-221300-
  CENTRAL AND SOUTHEAST OHIO

CITY           SKY/WX    TMP DP  RH WIND       PRES   REMARKS
COLUMBUS       CLOUDY    55  54  96 S5        29.94S FOG
OSU AIRPORT    CLOUDY    54  54 100 S5        29.93S
BOLTON FIELD   NOT AVBL
RICKENBACK AFB NOT AVBL
NEWARK         CLOUDY    53  50  89 CALM      29.94R
MARION         CLOUDY    53  51  93 S5        29.93R FOG
LANCASTER      LGT RAIN  56  53  90 S5        29.95S
ZANESVILLE     CLOUDY    52  50  93 SW3       29.95S
NEW PHILLY     CLOUDY    50  49  96 SE5       29.95S
$$



USA.gov is the U.S. government's official web portal to all federal, state and local government web resources and services.